Hourly Weather Kitovo

Today, 30 July, Friday

Time Temperature Precipitation Wind Pressure Humidity
00:00 +19°C° 0 mm 2 mps 745 mmHg 85%
01:00 +19°C° 0 mm 2 mps 745 mmHg 86%
02:00 +18°C° 0 mm 2 mps 745 mmHg 87%
03:00 +18°C° 0 mm 2 mps 745 mmHg 88%
04:00 +19°C° 0 mm 2 mps 745 mmHg 85%
05:00 +20°C° 0 mm 1 mps 745 mmHg 83%
06:00 +21°C° 0 mm 1 mps 745 mmHg 81%
07:00 +23°C° 0 mm 2 mps 745 mmHg 72%
08:00 +25°C° 0 mm 2 mps 745 mmHg 64%
09:00 +28°C° 0 mm 2 mps 745 mmHg 55%
10:00 +28°C° 0.1 mm 2 mps 745 mmHg 55%
11:00 +28°C° 0.1 mm 3 mps 745 mmHg 56%
12:00 +28°C° 0.1 mm 3 mps 744 mmHg 56%
13:00 +27°C° 0.6 mm 2 mps 744 mmHg 67%
14:00 +25°C° 0.6 mm 2 mps 744 mmHg 77%
15:00 +23°C° 0.6 mm 1 mps 744 mmHg 87%
16:00 +24°C° 0.5 mm 1 mps 743 mmHg 86%
17:00 +24°C° 0.5 mm 1 mps 743 mmHg 84%
18:00 +25°C° 0.5 mm 1 mps 743 mmHg 82%
19:00 +23°C° 0.8 mm 2 mps 743 mmHg 87%
20:00 +21°C° 0.8 mm 2 mps 743 mmHg 92%
21:00 +20°C° 0.8 mm 2 mps 743 mmHg 97%
22:00 +20°C° 0 mm 2 mps 743 mmHg 97%
23:00 +19°C° 0 mm 2 mps 743 mmHg 97%

Tomorrow, 31 July, Saturday

Time Temperature Precipitation Wind Pressure Humidity
00:00 +19°C° 0 mm 2 mps 744 mmHg 97%
01:00 +19°C° 0 mm 2 mps 744 mmHg 97%
02:00 +18°C° 0 mm 2 mps 744 mmHg 97%
03:00 +18°C° 0 mm 2 mps 744 mmHg 97%
04:00 +18°C° 0 mm 2 mps 744 mmHg 96%
05:00 +18°C° 0 mm 2 mps 744 mmHg 95%
06:00 +18°C° 0 mm 3 mps 744 mmHg 93%
07:00 +19°C° 0 mm 3 mps 745 mmHg 81%
08:00 +21°C° 0 mm 4 mps 745 mmHg 70%
09:00 +23°C° 0 mm 4 mps 745 mmHg 58%
10:00 +25°C° 0 mm 4 mps 745 mmHg 51%
11:00 +26°C° 0 mm 5 mps 745 mmHg 43%
12:00 +28°C° 0 mm 5 mps 745 mmHg 36%
13:00 +28°C° 0 mm 6 mps 745 mmHg 35%
14:00 +29°C° 0 mm 6 mps 745 mmHg 34%
15:00 +29°C° 0 mm 6 mps 745 mmHg 33%
16:00 +28°C° 0 mm 5 mps 745 mmHg 36%
17:00 +28°C° 0 mm 5 mps 745 mmHg 38%
18:00 +28°C° 0 mm 4 mps 746 mmHg 41%
19:00 +25°C° 0 mm 4 mps 746 mmHg 47%
20:00 +22°C° 0 mm 3 mps 746 mmHg 54%
21:00 +20°C° 0 mm 2 mps 746 mmHg 60%
22:00 +20°C° 0 mm 2 mps 747 mmHg 63%
23:00 +19°C° 0 mm 2 mps 747 mmHg 66%

Day after tomorrow, 1 August, Sunday

Time Temperature Precipitation Wind Pressure Humidity
00:00 +18°C° 0 mm 2 mps 747 mmHg 69%
01:00 +18°C° 0 mm 2 mps 748 mmHg 71%
02:00 +17°C° 0 mm 2 mps 748 mmHg 73%
03:00 +17°C° 0 mm 2 mps 748 mmHg 74%
04:00 +17°C° 0 mm 2 mps 748 mmHg 74%
05:00 +18°C° 0 mm 2 mps 749 mmHg 73%
06:00 +18°C° 0 mm 2 mps 749 mmHg 73%
07:00 +20°C° 0 mm 2 mps 749 mmHg 65%
08:00 +23°C° 0 mm 2 mps 749 mmHg 58%
09:00 +26°C° 0 mm 2 mps 749 mmHg 50%
10:00 +27°C° 0 mm 3 mps 749 mmHg 46%
11:00 +29°C° 0 mm 3 mps 749 mmHg 43%
12:00 +30°C° 0 mm 3 mps 749 mmHg 39%
13:00 +30°C° 0 mm 3 mps 749 mmHg 42%
14:00 +30°C° 0 mm 4 mps 749 mmHg 44%
15:00 +30°C° 0 mm 4 mps 748 mmHg 47%
16:00 +29°C° 0 mm 3 mps 748 mmHg 48%
17:00 +29°C° 0 mm 2 mps 748 mmHg 50%
18:00 +29°C° 0 mm 1 mps 748 mmHg 51%
19:00 +27°C° 0 mm 2 mps 748 mmHg 57%
20:00 +26°C° 0 mm 2 mps 747 mmHg 62%
21:00 +24°C° 0 mm 2 mps 747 mmHg 67%
22:00 +23°C° 0 mm 2 mps 747 mmHg 66%
23:00 +23°C° 0 mm 2 mps 747 mmHg 64%

2 August, Monday

Time Temperature Precipitation Wind Pressure Humidity
00:00 +23°C° 0 mm 2 mps 747 mmHg 62%
01:00 +21°C° 0 mm 2 mps 747 mmHg 65%
02:00 +21°C° 0 mm 2 mps 747 mmHg 68%
03:00 +21°C° 0 mm 2 mps 747 mmHg 70%
04:00 +20°C° 0.1 mm 2 mps 748 mmHg 76%
05:00 +20°C° 0.1 mm 2 mps 748 mmHg 81%
06:00 +20°C° 0.1 mm 2 mps 748 mmHg 86%
07:00 +22°C° 0 mm 3 mps 748 mmHg 78%
08:00 +25°C° 0 mm 3 mps 748 mmHg 69%
09:00 +27°C° 0 mm 3 mps 748 mmHg 61%
10:00 +28°C° 0 mm 4 mps 747 mmHg 56%
11:00 +30°C° 0 mm 4 mps 747 mmHg 51%
12:00 +32°C° 0 mm 4 mps 747 mmHg 45%
13:00 +33°C° 0 mm 4 mps 747 mmHg 42%
14:00 +34°C° 0 mm 4 mps 747 mmHg 39%
15:00 +35°C° 0 mm 5 mps 746 mmHg 36%
16:00 +34°C° 0 mm 3 mps 746 mmHg 39%
17:00 +34°C° 0 mm 2 mps 745 mmHg 42%
18:00 +32°C° 0 mm 1 mps 745 mmHg 45%
19:00 +29°C° 0.3 mm 1 mps 745 mmHg 55%
20:00 +26°C° 0.3 mm 2 mps 744 mmHg 65%
21:00 +23°C° 0.3 mm 2 mps 744 mmHg 75%
22:00 +23°C° 0.1 mm 2 mps 744 mmHg 78%
23:00 +22°C° 0.1 mm 3 mps 745 mmHg 81%

3 August, Tuesday

Time Temperature Precipitation Wind Pressure Humidity
00:00 +21°C° 0.1 mm 3 mps 745 mmHg 84%
01:00 +21°C° 0.7 mm 3 mps 745 mmHg 88%
02:00 +20°C° 0.7 mm 2 mps 744 mmHg 92%
03:00 +20°C° 0.7 mm 2 mps 744 mmHg 95%
04:00 +20°C° 0 mm 2 mps 744 mmHg 94%
05:00 +20°C° 0 mm 3 mps 744 mmHg 92%
06:00 +21°C° 0 mm 4 mps 745 mmHg 91%
07:00 +21°C° 0 mm 4 mps 745 mmHg 87%
08:00 +22°C° 0 mm 5 mps 745 mmHg 83%
09:00 +23°C° 0 mm 5 mps 746 mmHg 80%
10:00 +22°C° 0.2 mm 5 mps 746 mmHg 80%
11:00 +22°C° 0.2 mm 4 mps 746 mmHg 81%
12:00 +21°C° 0.2 mm 4 mps 746 mmHg 81%
13:00 +22°C° 0.1 mm 4 mps 747 mmHg 74%
14:00 +23°C° 0.1 mm 5 mps 747 mmHg 67%
15:00 +23°C° 0.1 mm 5 mps 747 mmHg 60%
16:00 +23°C° 0 mm 5 mps 748 mmHg 58%
17:00 +23°C° 0 mm 4 mps 748 mmHg 56%
18:00 +24°C° 0 mm 3 mps 748 mmHg 54%
19:00 +21°C° 0 mm 2 mps 748 mmHg 60%
20:00 +19°C° 0 mm 2 mps 749 mmHg 67%
21:00 +19°C° 0 mm 1 mps 749 mmHg 73%
22:00 +19°C° 0 mm 1 mps 749 mmHg 73%
23:00 +19°C° 0 mm 1 mps 750 mmHg 73%

4 August, Wednesday

Time Temperature Precipitation Wind Pressure Humidity
00:00 +19°C° 0 mm 1 mps 750 mmHg 72%
01:00 +19°C° 0 mm 1 mps 750 mmHg 72%
02:00 +18°C° 0 mm 2 mps 750 mmHg 72%
03:00 +18°C° 0 mm 2 mps 750 mmHg 72%
04:00 +18°C° 0 mm 2 mps 750 mmHg 75%
05:00 +17°C° 0 mm 2 mps 751 mmHg 78%
06:00 +17°C° 0 mm 2 mps 751 mmHg 80%
07:00 +19°C° 0 mm 2 mps 751 mmHg 72%
08:00 +21°C° 0 mm 3 mps 751 mmHg 63%
09:00 +22°C° 0 mm 3 mps 751 mmHg 54%
10:00 +24°C° 0 mm 3 mps 751 mmHg 49%
11:00 +26°C° 0 mm 4 mps 751 mmHg 44%
12:00 +27°C° 0 mm 4 mps 751 mmHg 38%
13:00 +27°C° 0 mm 4 mps 751 mmHg 37%
14:00 +27°C° 0 mm 4 mps 751 mmHg 36%
15:00 +28°C° 0 mm 4 mps 751 mmHg 35%
16:00 +26°C° 0 mm 4 mps 752 mmHg 40%
17:00 +25°C° 0 mm 3 mps 752 mmHg 45%
18:00 +24°C° 0 mm 3 mps 752 mmHg 50%
19:00 +23°C° 0 mm 2 mps 752 mmHg 53%
20:00 +21°C° 0 mm 2 mps 752 mmHg 56%
21:00 +21°C° 0 mm 1 mps 753 mmHg 58%
22:00 +21°C° 0 mm 1 mps 753 mmHg 60%
23:00 +19°C° 0 mm 2 mps 753 mmHg 61%
Show more